Radiation Dose at Monitoring Post of Fukushima Daini Nuclear Power Station
Date,Time,MP-1(microSv/h),MP-2(microSv/h),MP-3(microSv/h),MP-4(microSv/h),MP-5(microSv/h),MP-6(microSv/h),MP-7(microSv/h),Wind Direction,Wind Velocity(m/s),Rain
2018/06/20,00:00,0.308,0.195,0.312,0.303,0.288,0.152,0.094,south-southeast,1.6,No
2018/06/20,00:10,0.305,0.193,0.308,0.301,0.283,0.153,0.094,south,2.0,No
2018/06/20,00:20,0.308,0.195,0.312,0.302,0.287,0.152,0.094,south,1.7,No
2018/06/20,00:30,0.307,0.194,0.310,0.301,0.285,0.154,0.094,south,1.6,No
2018/06/20,00:40,0.306,0.195,0.313,0.301,0.285,0.152,0.095,south,2.6,No
2018/06/20,00:50,0.309,0.196,0.312,0.301,0.286,0.153,0.094,south,1.4,No
2018/06/20,01:00,0.306,0.194,0.311,0.300,0.284,0.153,0.094,south,1.4,No
2018/06/20,01:10,0.308,0.194,0.311,0.303,0.288,0.152,0.094,south,1.8,No
2018/06/20,01:20,0.307,0.194,0.310,0.300,0.285,0.153,0.094,south,1.7,No
2018/06/20,01:30,0.306,0.195,0.313,0.303,0.286,0.153,0.095,south,3.0,No
2018/06/20,01:40,0.308,0.194,0.309,0.301,0.288,0.153,0.095,south,2.8,No
2018/06/20,01:50,0.306,0.196,0.312,0.301,0.284,0.154,0.094,south,3.6,No
2018/06/20,02:00,0.309,0.195,0.310,0.303,0.287,0.153,0.094,south,3.9,No
2018/06/20,02:10,0.306,0.195,0.312,0.301,0.285,0.155,0.095,south,3.7,No
2018/06/20,02:20,0.309,0.195,0.313,0.303,0.288,0.153,0.095,south,4.0,No
2018/06/20,02:30,0.306,0.195,0.311,0.300,0.285,0.154,0.095,south,4.3,No
2018/06/20,02:40,0.309,0.195,0.312,0.303,0.287,0.154,0.095,south,3.9,No
2018/06/20,02:50,0.307,0.193,0.312,0.300,0.286,0.153,0.095,south,3.8,No
2018/06/20,03:00,0.306,0.195,0.313,0.303,0.286,0.154,0.096,south,5.5,No
2018/06/20,03:10,0.307,0.194,0.310,0.303,0.287,0.154,0.094,south,6.0,No
2018/06/20,03:20,0.306,0.196,0.313,0.303,0.285,0.153,0.095,south-southwest,5.8,No
2018/06/20,03:30,0.310,0.194,0.310,0.303,0.289,0.153,0.095,south,5.3,No
2018/06/20,03:40,0.308,0.195,0.313,0.300,0.285,0.153,0.095,south,5.0,No
2018/06/20,03:50,0.308,0.195,0.311,0.303,0.289,0.154,0.095,south-southwest,5.4,No
2018/06/20,04:00,0.307,0.195,0.313,0.301,0.286,0.154,0.096,south-southwest,4.6,No
2018/06/20,04:10,0.307,0.195,0.311,0.304,0.286,0.155,0.095,south-southwest,5.6,No
2018/06/20,04:20,0.310,0.196,0.313,0.301,0.287,0.153,0.095,south-southwest,5.6,No
2018/06/20,04:30,0.306,0.195,0.313,0.302,0.284,0.153,0.095,south-southwest,5.6,No
2018/06/20,04:40,0.310,0.196,0.312,0.302,0.287,0.154,0.095,south-southwest,4.7,No
2018/06/20,04:50,0.307,0.194,0.314,0.302,0.285,0.154,0.096,south-southwest,5.0,No
2018/06/20,05:00,0.309,0.195,0.311,0.302,0.287,0.154,0.094,south,3.4,No
2018/06/20,05:10,0.308,0.196,0.312,0.301,0.285,0.153,0.096,south,4.7,No
2018/06/20,05:20,0.308,0.196,0.311,0.304,0.287,0.155,0.095,south,4.8,No
2018/06/20,05:30,0.309,0.195,0.315,0.300,0.285,0.153,0.095,south,4.3,No
2018/06/20,05:40,0.306,0.195,0.311,0.305,0.286,0.154,0.095,south,4.0,No
2018/06/20,05:50,0.308,0.195,0.312,0.301,0.286,0.153,0.095,south,4.3,No
2018/06/20,06:00,0.306,0.194,0.310,0.302,0.285,0.152,0.094,south,4.6,No
2018/06/20,06:10,0.308,0.194,0.313,0.300,0.287,0.153,0.094,south,6.1,No
2018/06/20,06:20,0.307,0.194,0.313,0.302,0.285,0.152,0.095,south,5.5,No
2018/06/20,06:30,0.307,0.195,0.311,0.303,0.286,0.153,0.095,south,5.1,Yes
2018/06/20,06:40,0.309,0.194,0.314,0.301,0.285,0.152,0.095,south,4.7,Yes
2018/06/20,06:50,0.306,0.195,0.312,0.303,0.286,0.154,0.095,south,6.0,Yes
2018/06/20,07:00,0.310,0.195,0.314,0.301,0.286,0.154,0.096,south,5.6,Yes
2018/06/20,07:10,0.308,0.194,0.310,0.304,0.284,0.154,0.094,south,5.7,Yes
2018/06/20,07:20,0.308,0.195,0.314,0.302,0.287,0.154,0.095,south,5.9,Yes
2018/06/20,07:30,0.308,0.195,0.311,0.302,0.285,0.153,0.095,south,6.4,Yes
2018/06/20,07:40,0.307,0.195,0.313,0.302,0.286,0.154,0.095,south,6.2,Yes
2018/06/20,07:50,0.310,0.194,0.312,0.301,0.286,0.154,0.095,south-southeast,6.2,Yes
2018/06/20,08:00,0.307,0.196,0.314,0.302,0.286,0.154,0.095,south-southeast,6.6,Yes
2018/06/20,08:10,0.310,0.195,0.312,0.301,0.286,0.154,0.097,south,7.1,Yes
2018/06/20,08:20,0.307,0.197,0.311,0.302,0.286,0.155,0.097,south,5.7,Yes
2018/06/20,08:30,0.308,0.196,0.311,0.301,0.285,0.156,0.097,-,CALM,Yes
2018/06/20,08:40,0.305,0.198,0.312,0.302,0.284,0.155,0.097,southwest,19.8,Yes
2018/06/20,08:50,0.306,0.196,0.310,0.297,0.286,0.156,0.098,-,CALM,Yes
2018/06/20,09:00,0.305,0.196,0.308,0.299,0.283,0.155,0.096,south,7.6,Yes
2018/06/20,09:10,0.305,0.195,0.309,0.297,0.285,0.155,0.098,-,CALM,Yes
2018/06/20,09:20,0.306,0.197,0.307,0.297,0.283,0.154,0.097,-,CALM,Yes
2018/06/20,09:30,0.302,0.195,0.308,0.296,0.286,0.155,0.097,-,CALM,Yes
2018/06/20,09:40,0.304,0.196,0.305,0.295,0.283,0.154,0.097,east,6.1,Yes
2018/06/20,09:50,0.302,0.194,0.304,0.295,0.283,0.154,0.098,-,CALM,Yes
2018/06/20,10:00,0.303,0.196,0.303,0.293,0.284,0.154,0.098,east-southeast,4.5,Yes
2018/06/20,10:10,0.298,0.193,0.304,0.293,0.283,0.154,0.098,south-southeast,9.3,Yes
2018/06/20,10:20,0.302,0.195,0.302,0.290,0.285,0.154,0.098,south-southeast,10.6,Yes
2018/06/20,10:30,0.298,0.194,0.304,0.292,0.282,0.152,0.098,south-southeast,9.8,Yes
2018/06/20,10:40,0.300,0.195,0.300,0.290,0.283,0.153,0.098,south-southeast,10.7,Yes
2018/06/20,10:50,0.300,0.192,0.302,0.291,0.281,0.152,0.097,south-southeast,9.0,Yes
2018/06/20,11:00,0.301,0.193,0.300,0.290,0.284,0.152,0.098,south-southeast,8.6,Yes
2018/06/20,11:10,0.299,0.192,0.303,0.292,0.281,0.151,0.096,south-southeast,8.2,Yes
2018/06/20,11:20,0.298,0.192,0.301,0.289,0.283,0.152,0.096,-,CALM,Yes
2018/06/20,11:30,0.299,0.192,0.301,0.292,0.280,0.150,0.096,-,CALM,Yes
2018/06/20,11:40,0.296,0.190,0.299,0.288,0.281,0.149,0.095,southeast,8.3,Yes
2018/06/20,11:50,0.298,0.191,0.300,0.290,0.281,0.150,0.095,southeast,8.1,Yes
2018/06/20,12:00,0.297,0.191,0.299,0.288,0.280,0.149,0.095,southeast,9.2,Yes
2018/06/20,12:10,0.296,0.191,0.299,0.290,0.281,0.150,0.095,southeast,9.2,Yes
2018/06/20,12:20,0.297,0.189,0.299,0.288,0.281,0.149,0.095,southeast,8.6,Yes
2018/06/20,12:30,0.296,0.191,0.300,0.290,0.282,0.150,0.094,southeast,7.7,No
2018/06/20,12:40,0.298,0.190,0.301,0.290,0.279,0.148,0.094,southeast,5.5,No
2018/06/20,12:50,0.295,0.190,0.298,0.288,0.282,0.149,0.093,southeast,6.7,Yes
2018/06/20,13:00,0.297,0.189,0.300,0.290,0.281,0.148,0.094,south-southeast,6.8,Yes
2018/06/20,13:10,0.299,0.189,0.298,0.289,0.281,0.147,0.092,south-southeast,7.6,Yes
2018/06/20,13:20,0.296,0.190,0.299,0.291,0.280,0.149,0.094,south-southeast,7.0,Yes
2018/06/20,13:30,0.299,0.188,0.298,0.288,0.279,0.147,0.092,south-southeast,6.3,Yes
2018/06/20,13:40,0.295,0.188,0.301,0.290,0.282,0.148,0.092,south-southeast,5.7,Yes
2018/06/20,13:50,0.298,0.190,0.299,0.289,0.279,0.149,0.093,south-southeast,5.2,No
2018/06/20,14:00,0.295,0.190,0.301,0.292,0.281,0.148,0.093,south-southeast,4.5,No
2018/06/20,14:10,0.297,0.189,0.301,0.289,0.281,0.148,0.092,south-southeast,4.0,No
2018/06/20,14:20,0.297,0.190,0.299,0.290,0.278,0.147,0.092,south-southeast,4.7,No
2018/06/20,14:30,0.296,0.189,0.301,0.291,0.282,0.148,0.093,south-southeast,4.7,No
2018/06/20,14:40,0.297,0.189,0.299,0.289,0.278,0.147,0.092,south-southeast,4.6,Yes
2018/06/20,14:50,0.296,0.190,0.301,0.292,0.280,0.147,0.093,south-southeast,4.8,Yes
2018/06/20,15:00,0.297,0.190,0.298,0.290,0.281,0.149,0.093,south-southeast,4.7,Yes
2018/06/20,15:10,0.298,0.190,0.303,0.291,0.279,0.148,0.093,southeast,3.4,Yes
2018/06/20,15:20,0.297,0.190,0.301,0.289,0.281,0.149,0.093,southeast,2.5,Yes
2018/06/20,15:30,0.299,0.190,0.301,0.290,0.279,0.149,0.093,southeast,3.3,Yes
2018/06/20,15:40,0.295,0.189,0.300,0.292,0.282,0.149,0.094,east-southeast,2.6,Yes
2018/06/20,15:50,0.299,0.190,0.300,0.291,0.279,0.150,0.094,southeast,2.9,Yes
2018/06/20,16:00,0.297,0.190,0.300,0.292,0.280,0.149,0.094,east-southeast,1.7,Yes
2018/06/20,16:10,0.297,0.191,0.299,0.288,0.280,0.150,0.094,east-southeast,3.3,Yes
2018/06/20,16:20,0.298,0.190,0.301,0.290,0.280,0.150,0.094,southeast,1.6,Yes
2018/06/20,16:30,0.296,0.191,0.298,0.289,0.282,0.150,0.094,southeast,2.0,Yes
2018/06/20,16:40,0.298,0.190,0.301,0.291,0.278,0.151,0.094,east-southeast,2.4,Yes
2018/06/20,16:50,0.296,0.190,0.299,0.289,0.283,0.149,0.094,southeast,2.1,Yes
2018/06/20,17:00,0.299,0.190,0.301,0.291,0.280,0.150,0.095,southeast,3.2,Yes
2018/06/20,17:10,0.296,0.189,0.300,0.290,0.281,0.148,0.094,south-southeast,3.1,Yes
2018/06/20,17:20,0.298,0.190,0.300,0.289,0.280,0.149,0.094,southeast,2.4,Yes
2018/06/20,17:30,0.296,0.190,0.299,0.289,0.280,0.148,0.093,east-southeast,2.8,Yes
2018/06/20,17:40,0.296,0.191,0.301,0.287,0.281,0.149,0.094,southeast,2.0,Yes
2018/06/20,17:50,0.298,0.189,0.300,0.290,0.280,0.149,0.094,southeast,2.0,Yes
2018/06/20,18:00,0.296,0.190,0.297,0.288,0.282,0.147,0.093,southeast,0.9,Yes
2018/06/20,18:10,0.297,0.188,0.299,0.289,0.279,0.149,0.093,east-northeast,0.6,Yes
2018/06/20,18:20,0.292,0.190,0.297,0.288,0.280,0.147,0.093,north-northeast,2.2,Yes
2018/06/20,18:30,0.296,0.188,0.298,0.288,0.278,0.148,0.093,east-northeast,3.3,Yes
2018/06/20,18:40,0.294,0.189,0.296,0.288,0.280,0.147,0.093,east-southeast,3.1,Yes
2018/06/20,18:50,0.296,0.187,0.298,0.288,0.278,0.147,0.093,east-southeast,3.1,Yes
2018/06/20,19:00,0.294,0.189,0.297,0.288,0.280,0.148,0.093,east-southeast,2.9,Yes
2018/06/20,19:10,0.296,0.188,0.299,0.288,0.281,0.148,0.093,southeast,3.5,No
2018/06/20,19:20,0.295,0.190,0.296,0.288,0.278,0.149,0.092,southeast,2.1,No
2018/06/20,19:30,0.296,0.188,0.299,0.287,0.282,0.147,0.093,east,1.6,No
2018/06/20,19:40,0.296,0.189,0.297,0.289,0.278,0.148,0.092,east-northeast,1.3,Yes
2018/06/20,19:50,0.295,0.188,0.298,0.288,0.281,0.147,0.094,east-northeast,1.3,Yes
2018/06/20,20:00,0.297,0.190,0.297,0.289,0.278,0.148,0.093,northeast,2.6,Yes
2018/06/20,20:10,0.294,0.188,0.298,0.287,0.280,0.147,0.093,east-northeast,1.1,No
2018/06/20,20:20,0.296,0.189,0.299,0.289,0.279,0.147,0.093,northeast,0.9,No
2018/06/20,20:30,0.294,0.188,0.299,0.288,0.280,0.147,0.091,east-northeast,0.9,No
2018/06/20,20:40,0.296,0.190,0.298,0.288,0.279,0.147,0.092,east,1.2,Yes
2018/06/20,20:50,0.295,0.189,0.298,0.287,0.280,0.149,0.092,-,CALM,Yes
2018/06/20,21:00,0.295,0.189,0.300,0.288,0.280,0.147,0.092,north-northeast,1.8,Yes
2018/06/20,21:10,0.295,0.188,0.298,0.287,0.278,0.148,0.093,north-northeast,2.0,Yes
2018/06/20,21:20,0.296,0.189,0.300,0.290,0.280,0.148,0.092,north-northeast,3.2,Yes
2018/06/20,21:30,0.295,0.189,0.297,0.288,0.277,0.147,0.092,north,3.3,Yes
2018/06/20,21:40,0.295,0.188,0.300,0.290,0.281,0.147,0.092,north,4.0,No
2018/06/20,21:50,0.297,0.188,0.296,0.287,0.278,0.147,0.093,north,3.4,No
2018/06/20,22:00,0.293,0.188,0.299,0.288,0.281,0.148,0.092,north,3.8,No
2018/06/20,22:10,0.296,0.188,0.297,0.289,0.277,0.147,0.092,north,4.8,No
2018/06/20,22:20,0.294,0.189,0.299,0.288,0.282,0.148,0.092,north,4.6,Yes
2018/06/20,22:30,0.296,0.189,0.298,0.289,0.278,0.147,0.091,north,4.4,Yes
2018/06/20,22:40,0.295,0.189,0.298,0.287,0.281,0.147,0.093,north,4.9,No
2018/06/20,22:50,0.297,0.188,0.299,0.290,0.279,0.147,0.091,north,5.4,No
2018/06/20,23:00,0.295,0.188,0.297,0.287,0.278,0.147,0.093,north,4.4,No
2018/06/20,23:10,0.296,0.188,0.298,0.289,0.279,0.146,0.091,north,3.8,No
2018/06/20,23:20,0.295,0.188,0.298,0.289,0.279,0.146,0.092,north,3.9,No
2018/06/20,23:30,0.295,0.188,0.299,0.287,0.281,0.148,0.092,north,3.8,Yes
2018/06/20,23:40,0.296,0.188,0.298,0.288,0.278,0.147,0.092,north,3.9,Yes
2018/06/20,23:50,0.295,0.189,0.299,0.288,0.280,0.149,0.091,north,3.6,Yes
